Location: Cheching
(60.0667°N, 164.2167°W)
Time: 14:24:16
(UTC+00:00)

STRAND 1 - Pass Details

Date: 22 January 2021
Orbit: 768 x 780 km, 98.4° (Epoch: 04 March)

Event Time Altitude Azimuth Distance (km) Brightness Sun altitude
Rises 16:51:03 0° 158° (SSE) 3,238 ? -19.0°
Reaches altitude 10° 16:53:20 10° 158° (SSE) 2,316 ? -18.7°
Maximum altitude 16:58:28 87° 69° (ENE) 784 ? -18.1°
Drops below altitude 10° 17:03:38 10° 343° (NNW) 2,339 ? -17.4°
Enters shadow 17:05:30 - 343° (NNW) 3,087 ? -17.2°
